Wind_Speed
20 19 20 20 20 21 21 21 20 19 20 20 20 20 19 18 18 18 18 17 17 17 17 18 18 19 19 19 19 20 20 21 21 22 23 24 24 24 25 25 26 25 26
20 19 19 19 20 20 21 21 19 18 20 20 20 19 17 17 16 16 16 17 16 16 17 16 17 18 18 18 20 20 21 21 22 22 23 24 25 25 25 26 26 26 27
18 18 19 19 20 20 20 20 19 19 19 19 18 17 16 15 16 16 16 17 17 16 16 16 16 17 18 18 19 20 21 21 22 23 23 24 24 25 25 26 26 27 27
18 18 19 19 20 19 19 19 18 18 18 18 17 16 15 16 16 16 16 16 16 16 15 15 17 18 18 19 19 20 21 21 22 22 23 23 24 25 26 25 25 26 26
18 19 19 18 18 18 18 17 17 18 18 17 16 15 14 14 15 16 15 16 15 15 15 16 17 18 18 19 19 20 21 21 21 21 21 21 22 23 24 24 24 25 26
18 18 17 18 18 18 18 18 17 18 17 16 15 14 13 14 14 15 15 15 15 14 15 16 16 17 18 18 19 19 20 20 20 20 20 20 20 20 21 22 23 25 26
19 19 18 19 19 18 18 18 18 18 17 15 13 13 13 14 14 14 14 14 14 15 15 15 16 17 17 17 17 18 18 19 19 19 19 20 20 20 21 22 23 24 25
19 19 18 18 18 17 17 16 16 16 16 14 12 12 12 13 13 13 14 13 14 15 15 15 15 15 15 16 17 17 18 18 19 19 19 20 20 21 21 22 22 22 22
18 18 18 18 18 17 17 16 16 15 14 13 13 13 13 13 13 14 14 14 14 15 15 14 13 13 15 16 16 17 18 19 19 19 20 21 21 21 21 21 21 21 22
17 17 17 17 17 17 17 17 16 15 14 14 13 13 13 13 13 13 14 14 14 14 14 13 13 14 15 16 16 17 18 18 18 19 19 19 19 20 20 20 21 22 22
17 17 17 17 17 16 15 16 15 14 13 14 14 14 14 13 13 13 14 14 13 14 14 13 14 14 15 16 16 16 16 16 17 18 18 18 18 18 19 19 20 21 23
17 17 17 17 16 16 15 15 14 14 14 14 14 13 13 13 13 13 13 13 13 14 13 13 13 14 15 15 16 16 15 15 16 16 17 17 17 17 18 19 19 20 21
17 18 17 17 16 16 16 16 15 14 14 14 14 13 12 13 13 13 13 13 13 13 13 13 13 14 14 15 15 15 15 15 15 15 15 16 16 16 17 18 18 20 20
17 18 18 17 17 16 16 15 14 14 13 14 13 13 13 13 13 13 13 13 13 13 13 13 13 13 13 13 13 14 14 13 14 15 15 15 16 17 18 17 18 19 20
17 17 17 17 16 15 15 14 13 14 14 14 13 13 13 13 13 12 12 12 12 12 13 13 13 13 13 13 13 13 13 13 13 14 14 15 17 18 18 18 19 20 21
17 17 17 16 15 15 14 13 14 14 14 14 13 13 13 12 12 12 12 12 13 13 13 13 13 13 13 13 14 14 15 15 15 15 15 16 17 18 19 19 19 20 20
17 16 16 16 15 15 14 14 14 14 14 13 13 12 12 12 12 12 12 13 13 13 13 13 13 13 13 14 14 15 16 16 16 16 17 18 19 19 20 20 21 20 21
17 17 16 15 15 15 15 15 14 14 13 13 13 13 12 12 12 13 13 13 13 13 13 13 14 14 14 14 15 15 16 16 16 17 18 19 20 21 21 21 22 22 22
17 16 16 16 15 15 15 15 14 13 13 13 13 14 13 13 13 14 13 13 13 13 14 14 14 14 14 14 15 15 15 16 16 18 19 20 21 21 22 22 22 22 23
17 16 16 16 16 16 16 15 15 15 14 14 13 14 14 14 14 14 14 14 13 14 14 14 14 14 14 15 15 15 16 17 17 18 20 20 21 21 21 22 23 23 24
18 18 18 17 17 17 17 16 16 15 15 14 14 15 15 15 15 14 14 14 13 14 14 14 15 15 15 15 15 16 17 18 18 19 19 19 20 21 22 23 24 24 25
19 19 18 18 17 17 17 17 16 16 15 15 15 16 15 15 14 14 13 13 14 14 15 15 15 15 16 16 16 17 18 19 19 19 19 19 20 21 23 24 24 24 24
20 19 19 18 18 18 18 17 17 16 16 16 16 16 16 15 14 14 13 13 14 14 15 15 15 15 16 16 17 17 17 18 18 18 19 20 21 22 23 23 23 24 23
20 20 20 19 18 18 18 18 17 17 17 17 16 15 15 14 14 14 14 14 15 15 15 15 16 16 16 16 16 16 17 17 17 18 18 19 20 22 22 22 23 24 23
21 21 20 20 19 18 18 18 18 18 18 17 16 15 14 14 14 13 13 13 14 15 14 15 15 15 16 16 17 16 17 17 17 18 19 19 20 21 22 23 23 23 23
22 21 21 20 19 19 18 18 18 18 17 17 16 16 15 15 14 14 13 14 14 14 13 13 13 14 15 15 16 16 17 17 18 18 19 20 21 22 23 23 23 23 23
Wind_Direction
297 297 298 297 295 295 295 295 294 293 292 294 298 295 294 292 288 286 287 287 284 281 275 275 271 270 270 271 272 271 272 272 273 273 274 274 274 273 268 268 266 265 264
299 301 301 299 297 296 295 294 293 294 294 296 299 296 294 293 290 290 290 287 288 284 279 277 273 272 273 275 275 274 275 275 275 276 276 276 274 275 272 270 267 266 264
302 303 304 302 300 297 296 296 295 296 295 295 296 296 293 291 292 293 293 292 290 289 282 277 276 275 275 276 275 275 276 277 277 276 276 276 274 275 273 270 268 267 266
303 304 304 302 301 300 300 299 299 299 299 297 295 293 293 294 294 296 295 296 293 288 283 281 279 277 276 277 277 276 277 278 278 277 275 276 276 275 273 270 267 266 266
305 306 305 306 305 304 307 305 306 304 303 301 296 296 295 295 297 301 298 297 294 288 283 282 280 279 279 279 279 280 279 281 279 279 278 278 278 278 276 271 268 267 267
306 308 306 308 310 308 310 310 306 304 302 301 297 296 297 297 300 303 304 300 296 290 289 285 282 283 282 282 284 285 283 282 280 280 280 280 281 282 281 277 273 271 269
306 308 309 310 312 311 309 308 307 305 303 300 296 296 302 305 306 306 305 301 299 298 297 293 289 285 284 286 288 287 287 284 281 281 281 282 284 286 285 280 278 275 273
305 307 308 309 310 311 311 312 310 307 303 302 303 303 307 311 314 314 311 304 300 300 300 298 294 288 286 286 287 288 287 286 284 282 283 285 287 287 286 283 280 276 274
306 307 309 309 309 309 310 307 308 309 307 305 306 308 310 312 314 316 315 310 304 302 301 298 293 288 287 288 289 288 289 288 288 288 288 288 288 289 289 287 283 281 279
309 309 311 312 310 306 306 304 303 306 308 306 305 307 306 307 310 312 313 310 308 306 304 299 293 290 291 293 293 293 293 291 291 292 292 290 290 289 287 286 286 286 284
313 312 313 314 311 308 306 305 304 305 306 306 304 304 303 303 307 308 312 312 312 311 310 307 300 297 296 295 294 296 296 295 296 295 294 292 291 290 290 289 290 290 287
313 313 314 315 312 310 307 304 302 302 303 304 304 303 303 302 303 306 309 311 312 314 314 312 306 303 300 299 300 301 301 298 300 301 300 298 296 295 294 293 293 294 293
313 314 316 316 313 312 310 307 304 301 300 300 302 303 303 302 302 303 305 308 310 312 313 313 310 309 305 303 306 306 304 304 305 305 305 304 304 302 302 301 299 298 297
312 314 316 314 311 310 309 308 305 305 305 303 301 301 301 305 304 305 307 308 309 310 312 314 312 313 312 308 307 309 310 310 311 310 310 310 310 307 305 303 303 303 302
313 314 314 315 313 309 307 306 305 304 304 304 301 301 302 305 304 304 308 310 310 310 313 316 313 313 314 312 311 311 312 312 312 312 310 311 313 312 309 305 304 304 304
314 316 315 313 312 310 308 306 306 305 305 306 306 307 305 303 303 305 308 310 308 307 312 315 315 314 313 313 312 313 313 312 312 312 311 311 312 312 311 310 309 308 307
316 317 316 314 311 310 307 305 306 306 307 310 311 312 307 303 302 304 306 308 308 306 308 311 313 314 313 312 312 313 312 312 311 311 310 309 310 310 311 311 310 308 307
316 315 315 313 313 311 306 307 307 309 310 310 310 310 308 305 302 303 305 306 304 302 304 308 310 310 312 312 311 309 309 310 312 312 311 311 310 311 310 310 310 309 306
314 313 313 313 313 311 306 303 304 305 306 307 307 307 306 304 303 301 303 305 302 301 302 304 305 307 313 315 314 312 312 311 310 310 311 312 314 315 313 311 311 309 307
309 311 311 310 310 310 309 304 304 305 305 304 303 303 303 302 301 300 301 303 303 303 304 304 303 303 308 312 314 312 313 313 312 311 312 314 315 316 316 314 312 311 310
307 307 308 309 310 309 308 305 303 301 300 298 298 299 300 300 300 299 300 300 301 302 304 305 306 306 307 309 312 313 314 315 313 313 314 315 316 315 315 315 315 314 312
304 305 304 304 306 307 306 305 302 300 296 294 293 295 297 299 298 299 299 299 301 303 303 305 305 306 307 308 312 313 315 315 314 314 315 317 318 318 318 318 318 318 316
302 303 303 301 300 302 304 304 303 301 297 295 293 292 293 293 295 296 296 297 299 302 303 303 304 307 309 311 313 315 317 318 318 317 317 319 321 322 322 322 323 324 322
301 302 303 301 300 300 300 300 299 299 297 295 293 293 293 292 291 294 294 296 298 301 302 303 304 305 307 310 313 317 319 320 321 319 318 320 323 326 326 326 325 325 325
300 300 300 300 298 298 298 297 295 297 297 294 291 291 291 289 290 292 293 295 298 300 301 304 307 307 308 309 312 315 318 321 321 321 321 323 326 327 328 329 328 327 327
296 296 296 296 293 293 295 295 294 294 294 291 289 290 289 287 289 290 292 294 297 301 303 306 309 310 312 312 314 316 318 318 319 320 322 324 326 328 331 332 331 331 330
Height
5838 5836 5833 5831 5828 5826 5824 5822 5820 5818 5816 5814 5811 5809 5806 5803 5801 5799 5797 5795 5794 5793 5793 5792 5792 5792 5792 5792 5792 5791 5791 5790 5790 5789 5789 5788 5788 5788 5788 5788 5788 5789 5789
5834 5831 5829 5826 5824 5821 5819 5817 5815 5813 5811 5809 5807 5804 5802 5799 5797 5795 5793 5792 5790 5789 5788 5788 5788 5788 5787 5787 5787 5786 5786 5785 5784 5783 5783 5782 5782 5781 5781 5781 5781 5781 5781
5830 5828 5825 5822 5820 5817 5815 5813 5811 5809 5806 5804 5802 5800 5798 5796 5794 5792 5790 5788 5787 5785 5784 5784 5783 5783 5783 5782 5782 5781 5780 5779 5778 5777 5777 5776 5775 5774 5774 5773 5773 5773 5773
5826 5823 5821 5818 5815 5813 5810 5808 5806 5804 5802 5800 5798 5796 5794 5792 5790 5788 5786 5784 5783 5782 5780 5780 5779 5779 5778 5777 5777 5776 5775 5774 5773 5771 5770 5770 5768 5767 5767 5766 5765 5765 5765
5822 5819 5816 5814 5811 5809 5806 5804 5802 5799 5797 5795 5793 5791 5790 5788 5786 5784 5782 5781 5779 5778 5776 5775 5775 5774 5773 5772 5771 5770 5769 5768 5767 5765 5764 5763 5762 5760 5759 5759 5758 5758 5758
5818 5815 5812 5810 5807 5805 5802 5800 5797 5795 5793 5791 5789 5788 5786 5785 5783 5780 5779 5777 5776 5774 5772 5771 5770 5769 5768 5767 5766 5764 5763 5762 5761 5760 5758 5757 5756 5754 5753 5752 5751 5751 5750
5814 5811 5809 5806 5804 5801 5799 5796 5794 5792 5789 5787 5786 5784 5783 5781 5779 5777 5775 5774 5772 5770 5769 5767 5766 5764 5763 5762 5761 5759 5757 5756 5755 5754 5752 5751 5750 5748 5746 5745 5744 5743 5743
5810 5808 5805 5802 5800 5797 5795 5793 5790 5788 5786 5784 5783 5781 5780 5778 5775 5774 5772 5770 5769 5767 5764 5763 5761 5760 5759 5757 5756 5754 5752 5751 5749 5748 5746 5745 5743 5741 5739 5738 5737 5736 5735
5806 5803 5801 5798 5796 5794 5791 5789 5786 5784 5782 5780 5779 5778 5776 5774 5773 5770 5769 5767 5765 5763 5761 5759 5757 5756 5754 5752 5750 5749 5747 5745 5743 5742 5740 5738 5737 5735 5733 5731 5730 5729 5728
5802 5799 5797 5794 5792 5789 5787 5785 5783 5781 5779 5777 5776 5775 5773 5772 5770 5768 5766 5763 5761 5759 5757 5755 5753 5752 5750 5748 5745 5743 5742 5740 5738 5736 5734 5732 5731 5729 5727 5725 5723 5722 5721
5798 5795 5793 5790 5787 5785 5783 5781 5779 5777 5776 5774 5772 5771 5770 5768 5766 5765 5762 5760 5758 5756 5753 5751 5749 5747 5745 5743 5741 5738 5736 5734 5733 5731 5729 5727 5725 5723 5721 5719 5718 5716 5714
5794 5791 5789 5786 5783 5781 5779 5777 5775 5774 5772 5771 5769 5767 5766 5765 5763 5761 5759 5757 5755 5752 5750 5747 5745 5743 5740 5738 5736 5734 5731 5730 5728 5726 5724 5721 5719 5717 5716 5714 5712 5710 5708
5791 5788 5786 5783 5780 5778 5776 5774 5772 5770 5769 5767 5766 5764 5763 5761 5759 5758 5756 5754 5752 5749 5747 5744 5741 5739 5736 5734 5731 5729 5727 5725 5723 5721 5719 5717 5714 5712 5710 5708 5706 5704 5702
5788 5785 5782 5779 5777 5774 5772 5770 5769 5767 5766 5764 5763 5761 5759 5758 5756 5754 5752 5750 5748 5746 5743 5741 5738 5735 5733 5730 5728 5726 5724 5722 5719 5717 5715 5712 5710 5708 5706 5703 5701 5699 5696
5785 5782 5779 5776 5774 5771 5769 5767 5766 5764 5762 5761 5759 5757 5756 5754 5752 5751 5749 5747 5745 5743 5740 5738 5735 5732 5729 5727 5725 5723 5720 5718 5716 5713 5711 5708 5706 5703 5701 5699 5696 5693 5690
5781 5778 5775 5773 5770 5768 5766 5764 5763 5761 5759 5757 5755 5753 5752 5750 5749 5747 5745 5744 5742 5740 5737 5735 5732 5729 5726 5724 5722 5719 5717 5715 5712 5710 5707 5704 5702 5699 5696 5693 5690 5688 5685
5777 5775 5772 5769 5767 5765 5763 5762 5760 5758 5756 5754 5752 5750 5748 5747 5745 5744 5742 5740 5738 5736 5734 5732 5729 5726 5724 5721 5718 5716 5713 5711 5708 5706 5703 5700 5697 5694 5691 5688 5685 5682 5679
5773 5771 5768 5766 5764 5762 5760 5758 5757 5755 5753 5750 5749 5747 5745 5744 5742 5740 5738 5736 5734 5733 5731 5729 5726 5724 5721 5718 5715 5712 5709 5707 5704 5702 5699 5696 5693 5689 5686 5683 5680 5677 5673
5769 5767 5765 5763 5761 5758 5757 5755 5753 5751 5749 5747 5746 5744 5742 5741 5739 5737 5735 5733 5731 5729 5727 5725 5723 5720 5718 5715 5712 5709 5706 5703 5700 5698 5695 5691 5688 5684 5680 5677 5674 5670 5667
5765 5763 5761 5759 5757 5755 5753 5751 5749 5747 5746 5744 5742 5740 5739 5737 5735 5733 5731 5730 5728 5726 5724 5722 5719 5717 5714 5711 5708 5705 5702 5699 5696 5693 5690 5686 5683 5679 5675 5671 5668 5664 5660
5761 5759 5757 5755 5753 5751 5749 5747 5745 5743 5742 5740 5738 5737 5735 5733 5731 5729 5728 5726 5724 5722 5720 5718 5716 5713 5710 5707 5704 5701 5698 5695 5691 5688 5685 5682 5678 5674 5670 5666 5662 5657 5653
5756 5754 5752 5750 5748 5746 5745 5743 5741 5739 5738 5736 5734 5732 5731 5729 5727 5725 5724 5722 5720 5719 5716 5714 5711 5709 5706 5703 5700 5697 5694 5690 5687 5684 5680 5677 5673 5669 5665 5660 5656 5651 5646
5751 5749 5747 5745 5743 5742 5740 5738 5736 5734 5733 5731 5729 5727 5726 5724 5722 5721 5720 5718 5716 5714 5712 5710 5707 5704 5701 5698 5696 5693 5690 5686 5683 5679 5676 5672 5668 5664 5660 5655 5650 5645 5640
5745 5743 5742 5740 5738 5736 5734 5733 5731 5729 5728 5726 5724 5722 5721 5719 5718 5717 5715 5714 5712 5710 5708 5705 5702 5700 5697 5694 5691 5688 5685 5682 5679 5675 5672 5668 5664 5659 5654 5649 5645 5640 5635
5740 5738 5736 5735 5733 5731 5729 5727 5726 5724 5722 5720 5719 5717 5716 5715 5714 5712 5711 5709 5708 5706 5703 5701 5698 5695 5693 5690 5687 5684 5681 5678 5675 5671 5667 5663 5659 5655 5650 5645 5640 5635 5630
5734 5732 5730 5729 5727 5725 5723 5722 5720 5718 5717 5715 5714 5712 5711 5710 5709 5708 5706 5705 5703 5701 5699 5696 5694 5691 5689 5686 5683 5680 5677 5674 5670 5667 5663 5659 5655 5650 5645 5640 5635 5630 5625